This is the latest recevied weather packets stored in our database for station/object F5ZQC-13. If no packets are shown the sender has not sent any weather packets the latest 1 day(s).
| Time | Temp. | Humidity | Pressure | Rain* | Wind** | Luminosity | Snow |
|---|---|---|---|---|---|---|---|
| 1777974923 | 21.67° C | 32% | 1010 hPa | 0 mm | 2.68 m/s, 292° | - | - |
| 1777974677 | 22.22° C | 31% | 1010 hPa | 0 mm | 3.13 m/s, 303° | - | - |
| 1777974311 | 22.22° C | 31% | 1009.9 hPa | 0 mm | 1.79 m/s, 315° | - | - |
| 1777974189 | 22.22° C | 32% | 1009.9 hPa | 0 mm | 1.79 m/s, 315° | - | - |
| 1777974066 | 22.22° C | 33% | 1009.9 hPa | 0 mm | 1.34 m/s, 326° | - | - |
| 1777973944 | 22.22° C | 34% | 1009.9 hPa | 0 mm | 1.34 m/s, 0° | - | - |
| 1777973822 | 22.22° C | 33% | 1009.9 hPa | 0 mm | 0.89 m/s, 315° | - | - |
| 1777973700 | 22.22° C | 34% | 1009.9 hPa | 0 mm | 1.34 m/s, 292° | - | - |
| 1777973578 | 22.22° C | 33% | 1010 hPa | 0 mm | 1.34 m/s, 315° | - | - |
| 1777973333 | 22.22° C | 35% | 1009.9 hPa | 0 mm | 1.34 m/s, 315° | - | - |
| 1777973212 | 21.67° C | 35% | 1009.8 hPa | 0 mm | 0.89 m/s, 315° | - | - |
| 1777973211 | 21.67° C | 35% | 1009.8 hPa | 0 mm | 0.89 m/s, 315° | - | - |
| 1777973089 | 21.67° C | 35% | 1009.9 hPa | 0 mm | 0.89 m/s, 315° | - | - |
| 1777972843 | 21.67° C | 35% | 1009.9 hPa | 0 mm | 0.45 m/s, 292° | - | - |
| 1777972721 | 21.67° C | 35% | 1009.9 hPa | 0 mm | 0.45 m/s, 337° | - | - |
| 1777972477 | 21.67° C | 35% | 1009.9 hPa | 0 mm | 0.45 m/s, 0° | - | - |
| 1777972232 | 21.11° C | 35% | 1009.9 hPa | 0 mm | 1.34 m/s, 315° | - | - |
| 1777971866 | 21.11° C | 35% | 1009.9 hPa | 0 mm | 0.45 m/s, 0° | - | - |
| 1777971377 | 21.11° C | 36% | 1009.9 hPa | 0 mm | 0.45 m/s, 348° | - | - |
| 1777971255 | 21.11° C | 35% | 1009.8 hPa | 0 mm | 0.45 m/s, 348° | - | - |
| 1777971132 | 21.11° C | 35% | 1009.9 hPa | 0 mm | 0.45 m/s, 337° | - | - |
| 1777971009 | 20.56° C | 35% | 1009.9 hPa | 0 mm | 0.45 m/s, 315° | - | - |
| 1777970887 | 20.56° C | 34% | 1009.8 hPa | 0 mm | 0.89 m/s, 270° | - | - |
| 1777970765 | 21.11° C | 34% | 1009.8 hPa | 0 mm | 2.24 m/s, 292° | - | - |
| 1777970643 | 21.11° C | 35% | 1009.8 hPa | 0 mm | 1.79 m/s, 315° | - | - |
* Rain since midnight (hover to see other rain measurements)
** Current wind speed in m/s (hover to see current wind gust speed)